Location: Unspecified
(35.7250°N, 0.0000°E)
Time: 21:33:53
(UTC+00:00)

Vanguard 2 - Visible Passes

Search period start: 25 June 2019 00:00
Search period end: 05 July 2019 00:00
Orbit: 553 x 2939 km, 32.9° (Epoch: 25 June)

Date Brightness Start Highest point End Pass type
(mag) Time Alt. Az. Time Alt. Az. Time Alt. Az.
30 Jun 9.1 03:55:07 10° S 03:57:08 13° SSE 03:59:04 10° SE visible
01 Jul 8.6 04:11:47 10° SSW 04:14:57 20° SSE 04:17:55 10° ESE visible
03 Jul 9.3 02:43:11 13° SSE 02:43:11 13° SSE 02:44:48 10° SE visible
04 Jul 8.8 03:00:00 19° S 03:00:36 20° SSE 03:03:45 10° ESE visible
